Regional Weather Roundup
Issued by NWS

Home | Current Version | Previous Version | Text Only | Print | Product List | Glossary On
Versions: 1 2 3 4 5 6 7 8 9 10 11 12 13 14 15 16 17 18 19 20 21 22 23 24 25 26 27 28 29 30 31 32 33 34 35 36 37 38 39 40 41 42 43 44 45 46 47 48 49 50
000
ASHW40 PHFO 300230
RWRHI

WEATHER ROUNDUP FOR HAWAII
NATIONAL WEATHER SERVICE HONOLULU HI
400 PM HST SAT AUG 29 2015

THIS IS AN AUTOMATED REPORT THAT HAS NOT BEEN QUALITY CONTROLLED.

NOTE..."FAIR" INDICATES FEW OR NO CLOUDS BELOW 12,000 FEET WITH NO
SIGNIFICANT WEATHER AND/OR OBSTRUCTIONS TO VISIBILITY.

* - THESE SITES REPORT LIMITED FIELDS

HIZ001>004-300300-
KAUAI-NIIHAU-

CITY           SKY/WX    TMP DP  RH WIND       PRES   REMARKS
LIHUE APT      MOSUNNY   84  76  76 E12       29.89F HX  93
PORT ALLEN*    NOT AVBL
POIPU*           N/A     86 N/A N/A NE8G15      N/A
PRINCEVILLE*     N/A     82 N/A N/A MISG        N/A
KOKOLE POINT*  NOT AVBL
MOLOAA DAIRY*    N/A     84  75  74 SE9G16      N/A  HX  92
WAIMEA HTS*    NOT AVBL
PUU OPAE*      NOT AVBL
PUU LUA*       NOT AVBL
MAKAHA RIDGE*    N/A     75  72  88 S1G9        N/A
$$

HIZ005>011-300300-
OAHU-

CITY           SKY/WX    TMP DP  RH WIND       PRES   REMARKS
HONOLULU       PTSUNNY   89  72  56 NE15      29.84F HX  96
KALAELOA       PTSUNNY   89  70  53 VRB7      29.86S HX  94
KANEOHE MCB    SUNNY     85  74  69 NE10      29.84F HX  92
WHEELER FIELD  FAIR      84  72  68 E14       29.86F
BELLOWS*         N/A    N/A N/A N/A NE13        N/A
KAHUKU*          N/A    N/A N/A N/A E9G18       N/A
WHEELER*       NOT AVBL
WAIANAE HARBOR NOT AVBL
DILLINGHAM*      N/A     88  72  58 MISG        N/A  HX  94
KAHUKU TRN*      N/A     81  70  69 E8G22       N/A
KAWAILOA*        N/A     81  70  69 E12G24      N/A
KII*             N/A     84  77  79 E12G18      N/A  HX  94
MAKUA RANGE*     N/A     84  75  74 W2G12       N/A  HX  92
OAHU FOREST NW NOT AVBL
SCHOFIELD BRK*   N/A     81  70  69 MISG        N/A
SCHOFIELD S*   NOT AVBL
WAIANAE VLY*   NOT AVBL
KUAOKALA*      NOT AVBL
HONOULIUULI*   NOT AVBL
MOKUOLOE IS*   NOT AVBL
PALEHUA*       NOT AVBL
WAIAWA PHB*    NOT AVBL
$$

HIZ012>013-300300-
MOLOKAI-

CITY           SKY/WX    TMP DP  RH WIND       PRES   REMARKS
MOLOKAI AIRPT  MOSUNNY   84  71  65 NE15G23   29.86F
KALAUPAPA      NOT AVBL
MAKAPULAPAI*   NOT AVBL
MOLOKAI 1*     NOT AVBL
PUU ALII*        N/A     73  66  78 E2G8        N/A
$$

HIZ016-300300-
KAHOOLAWE-

CITY           SKY/WX    TMP DP  RH WIND       PRES   REMARKS
KAHOOLAWE*     NOT AVBL
HAKIOAWA*        N/A     79  71  75 MISG      30.29
HONOKANAIA*      N/A     88  74  62 E18G31    29.79  HX  96
KANELOA*         N/A     82  73  74 E18G30    29.94S
KEALIALALO*      N/A     84  72  65 E15G29    29.85F
LUA MAKIKA*    NOT AVBL
$$

HIZ014>015-300300-
LANAI-

CITY           SKY/WX    TMP DP  RH WIND       PRES   REMARKS
LANAI CITY     CLOUDY    81  72  74 NE18      29.90F
LANAI 1*       NOT AVBL
$$

HIZ017>028-300300-
MAUI-

CITY           SKY/WX    TMP DP  RH WIND       PRES   REMARKS
KAHULUI        MOSUNNY   88  72  58 NE25      29.84F HX  94
KAPALUA-W MAUI MOSUNNY   86  68  54 NE13G25   29.87
HANA AIRPORT   PTSUNNY   84  73  70 NE7       29.89F HX  91
HANA*            N/A     84 N/A N/A E9          N/A
HALEAKALA SUMM   N/A     61  48  63 NW5         N/A
MAALAEA BAY*   NOT AVBL
HALEAKALA*     NOT AVBL
KAUPO GAP*     NOT AVBL
KULA 1*          N/A     65  61  88 W3          N/A
$$

HIZ023>026-300300-
BIG ISLAND OF HAWAII COAST AND LOWER SLOPES-

CITY           SKY/WX    TMP DP  RH WIND       PRES   REMARKS
KAILUA KONA    PTSUNNY   87  75  67 SW10      29.81F HX  96
HILO           MOSUNNY   87  72  60 N10       29.85F HX  93
HONOKAA*       NOT AVBL
KAWAIHAE MWT*    N/A     88 N/A N/A W7          N/A
KAWAIHAE*        N/A     84 N/A N/A SW5         N/A
SOUTH POINT*     N/A     81 N/A N/A E10G20      N/A
UPOLU AIRPORT*   N/A    N/A N/A N/A NE15G21     N/A
KAMUELA*       CLEAR     79  61  53 NE25      30.06
HAKALAU*         N/A     70  61  73 E6G12       N/A
KALOKO-HONOKO*   N/A     86  75  70 SW7G13    29.81F HX  95
PALI 2*          N/A     82  66  57 W5G18       N/A
KEALAKOMO*       N/A    N/A N/A N/A N17G29      N/A
KAUPULEHU*     NOT AVBL
KAPAPALA*        N/A     84  74  71 S5G12       N/A  HX  91
LOWER KAHUKU*    N/A     73 N/A N/A E2G9        N/A
PUHE CS*         N/A     88  73  62 SW3         N/A  HX  96
PUHO CS*         N/A     86  73  65 W3          N/A  HX  93
PTA KEAMUKU*     N/A     73  63  68 CALM        N/A
WAIKOLOA*      NOT AVBL
$$

HIZ027>028-300300-
BIG ISLAND OF HAWAII INTERIOR AND SUMMMITS-

CITY           SKY/WX    TMP DP  RH WIND       PRES   REMARKS
BRADSHAW FIELD MOSUNNY   72  61  68 W8        30.22F
MK VISITOR CEN   N/A     54  50  87 S3          N/A
MAUNA KEA*       N/A     46  30  53 N10         N/A
MAUNA LOA*       N/A     52  43  71 MISG        N/A
MAUNA LOA 1*   NOT AVBL
PTA KIPUKA*      N/A     72  59  64 N8G15       N/A
PTA RANGE 17*    N/A     70  59  68 NW9G17      N/A
PTA WEST*        N/A     72  63  73 NW9G18      N/A
NENE CABIN*      N/A     63  55  77 E7G14       N/A
AHUMOA*        NOT AVBL
PTA PORTABLE*  NOT AVBL
PUU MALI*        N/A     61  59  94 NE13G22     N/A
$$

HIC003-300300-
NORTHWEST ISLANDS-

CITY           SKY/WX    TMP DP  RH WIND       PRES   REMARKS
MIDWAY ISLAND  SUNNY     84  73  70 SE6       29.88F HX  91
MIDWAY NOS*    NOT AVBL
FRENCH FRIGATE NOT AVBL
$$

PHZ110>124-180-300300-
BUOY REPORTS

STATION/POSITION TIME  TEMP    WIND        PRES    WAVE   SWELL
                       AIR SEA DIR/SP/G            HT/PER HT/DIR
                 (UTC) (F)     (DEG/KT/KT) (MB)    (FT/S) (FT/D)
BUOY 51001       0151   82 83  100/ 14/ 17 1012.1
BUOY 51101       0200   83 83  100/ 14/ 16 1011.6F   9/ 9   8/ 30
BUOY 51100       NOT AVBL
BUOY 51002       0200   82 83   90/ 12/ 14 1009.3F   5/15   5/ 30
BUOY 51003       0200   83 86  110/  6/  8 1010.2F   5/14   5/260
BUOY 51004       0135   82 83   40/ 12/ 14 1007.9F   7/15   7/270
BARBERS PT BUOY  NOT AVBL
WAIMEA BAY BUOY  0200      83                N/A     6/ 9   3/290
KAILUA BAY BUOY  0200      84                N/A     6/ 9   2/ 10
LANAI BUOY       NOT AVBL
BARBERS PT 2     0200      84                N/A     4/13   3/260
PAUWELA MAUI     0200      82                N/A     6/15   3/320
HILO             NOT AVBL
KANEOHE BAY BUOY 0200      82                N/A     5/10   2/ 10
HANALEI KAUAI    0200      83                N/A     7/ 9   3/300
KAHULUI HARBOR   NOT AVBL
HONOLULU HARBOR  NOT AVBL
KILO NALU        NOT AVBL
HILO HARBOR      NOT AVBL
MOKUOLOE         NOT AVBL
NAWILIWILI       NOT AVBL
WHOTS BUOY       NOT AVBL
BUOY 51028       NOT AVBL
$$

......................KEY........................................
  SKY/WX - SKY CONDITIONS/PRESENT WEATHER
  TMP    - TEMPERATURE IN FAHRENHEIT
  DWPT   - DEWPOINT IN FAHRENHEIT
  RH     - RELATIVE HUMIDITY IN PERCENT
  WIND   - DIRECTION AND SPEED /MPH FOR ISLANDS...KTS FOR BUOYS/
  PRES   - MEAN SEA LEVEL PRESSURE IN INCHES OF HG
  VSB    - VISIBILITY IN MILES
  HX     - HEAT INDEX
  WCI    - WIND CHILL INDEX
  VRB    - VARIABLE WIND DIRECTION
  N/A    - NOT AVAILABLE



USA.gov is the U.S. government's official web portal to all federal, state and local government web resources and services.